C/2017 C2 ( PanSTARRS )

Japanese version
Home page
Updated on July 6, 2017

---------------------------------------------------------------------

* Profile

Discovery Date February 4, 2017
Magnitude 19.6 mag
Discoverer Pan-STARRS 1 telescope (Haleakala)

* Pictures

* Orbital Elements

Epoch 2017 Jan. 7.0 TT = JDT 2457760.5
T 2017 Jan. 21.57956 TT                                 MPCW
q   2.4310850            (2000.0)            P               Q
z  +0.0098974      Peri.  138.76077     -0.03658923     +0.56510848
 +/-0.0000807      Node   249.81770     +0.51712681     +0.71645103
e   0.9759385      Incl.  118.58337     +0.85512636     -0.40908474
From 81 observations 2017 Feb. 4-Mar. 28, mean residual 0".5.

* Magnitudes Graph

        m1 = 13.0 + 5 log d + 10.0 log r

---------------------------------------------------------------------

The orbital elements are published on M.P.E.C. 2017-L52.
The magnitudes graphs are made with Comet for Windows.

---------------------------------------------------------------------

Copyright(C) Seiichi Yoshida (comet@aerith.net). All rights reserved.